Showing default

COSMOS 2459 (GLONASS), 36400

Orbit data source: Space-Track

COSMOS 2459 (GLONASS), 36400 is a Commonwealth of Independent States-origin payload satellite in MEO that was launched on Mon, 01 Mar 2010 UTC via a PROTON-M/DM-2 launch vehicle from the Tyuratam Missile And Space Complex (TTMTR). Payloads include a variety of satellites, spacecraft, and rockets equipped with specific instruments for various scientific and technological missions. These include communications satellites like Starlink; space stations such as the ISS; scientific satellites like the Hubble; Earth observation satellites from companies like Planet Labs, Umbra, and HawkEye 360; GPS; miniature CubeSats for education and research; and military/defense satellites.

Loading next visibility...
COSMOS 2459 (GLONASS) details
Identifier
36400, 2010-007A
Orbit
MEO
Last TLE update7 hours ago
Origin
Flag of CISKVR/IACG (CIS)
ManufacturerResehetnev ISS
MissionNon-operational Defense Navigation
Bus & MotorURAGAN, Unknown motor
Mass1,450 kg wet, ~1,200 kg dry
Launch date (UTC)
2010-03-01 (15 years ago)
Launch vehicle
PROTON-M/DM-2
Launch site
Tyuratam Missile And Space Complex (TTMTR)
Object type
Payload
Rocket body
Debris
Shape & HBRCyl + 1 Ant + 2 Pan, 7.8 m
Radar Cross Section8.467 m², Large (>1 m²)

Expand to show TLE details & history

TLE from 7 hours ago
0 COSMOS 2459 (GLONASS)
1 36400U 10007A   24361.26924470 -.00000056  00000-0  00000-0 0  9993
2 36400  65.7303 332.7128 0026679 341.5985  24.3201  2.13116774115360
Epoch: 2024-12-26T06:27Z
Definitive object data (Epoch: 2024-12-26T06:27:42.742Z)
Latitude5.5163°
Longitude143.01518°
Altitude19,066.869 km
Speed3.963 km/s
True Right ascension22h 20m 46s
True Declination5° 30' 26"
Sunlit
Object was in daylight at TLE epoch
Visualization TLE readout
Latitude-35.19603°
Longitude-20.96647°
Altitude19,176.656 km
Speed3.947 km/s
Apparent Right ascension11h 05m 27s
Apparent Declination-49° 08' 22"
Sunlit
Object is in daylight
Visualization observer readout
Local Sidereal Time12:29:58
Azimuth193.645° SSW
Elevation-0.989°
Doppler factor1
Orbital elements
Apogee altitude19,196.347 km
Perigee altitude19,060.25 km
Semi-major axis25,506.435 km
Eccentricity0.0026679
Inclination65.7303°
RAAN332.7128°
Arg. of periapsis341.5985°
True anomaly24.44639°
Mean anomaly24.3201°
Eccentric anomaly24.38321°
Mean motion0.53281 °/min
BSTARUnknown
Orbital period675.67 mins
Loading maneuver chart data...
Loading historical data...
Loading historical data...
Loading historical data...
Loading historical data...
Loading historical data...
Loading historical data...
Loading historical data...

COSMOS 2459 (GLONASS) Visibility forecast

Observer location: undefined°, undefined

Span
Click to sort rows by Start time (UTC) header in descending order
Start Az.
Max El. time (UTC)
Max El. Az.
Max El.
End time (UTC)
End Az.
112 mins2024-12-26 18:24:21.088Z76.63° E2024-12-26 19:21:21.088Z48.081° ENE17.814°2024-12-26 20:16:21.088Z22.517° NE
307 mins2024-12-27 06:11:21.088Z302.281° NW2024-12-27 09:00:21.088Z78.161° E44.934°2024-12-27 11:18:21.088Z176.014° S
|